EDT,Max TemperatureF,Mean TemperatureF,Min TemperatureF,Max Dew PointF,MeanDew PointF,Min DewpointF,Max Humidity, Mean Humidity, Min Humidity, Max Sea Level PressureIn, Mean Sea Level PressureIn, Min Sea Level PressureIn, Max VisibilityMiles, Mean VisibilityMiles, Min VisibilityMiles, Max Wind SpeedMPH, Mean Wind SpeedMPH, Max Gust SpeedMPH,PrecipitationIn, CloudCover, Events, WindDirDegrees
2012-5-1,80,72,63,67,64,62,100,79,58,30.12,30.02,29.94,10,9,3,10,4,15,0.08,5,Rain-Thunderstorm,191
2012-5-2,88,77,66,66,62,59,93,67,40,30.07,30.04,30.00,10,10,10,12,4,21,0.00,1,,194
2012-5-3,87,74,61,67,64,60,100,73,45,30.12,30.05,30.00,10,9,4,9,4,15,0.00,0,,193
2012-5-4,79,71,62,68,65,61,100,84,67,30.09,30.01,29.90,10,8,2,20,6,30,0.81,6,Rain,187
2012-5-5,77,70,63,66,64,63,100,85,69,29.99,29.93,29.87,10,6,0,14,2,21,1.36,7,Fog-Rain-Thunderstorm,234
2012-5-6,82,72,61,68,64,61,100,79,58,30.04,29.98,29.91,10,4,0,8,2,10,0.00,4,Fog,125
2012-5-7,83,71,59,65,62,59,100,76,51,29.95,29.89,29.79,10,4,0,14,6,20,T,2,Fog-Thunderstorm,172
2012-5-8,76,67,57,66,63,54,100,80,59,29.88,29.82,29.78,10,6,1,14,6,21,0.91,7,Rain,227
2012-5-9,70,62,54,56,52,43,100,71,42,29.87,29.82,29.74,10,8,3,13,4,20,T,5,Rain,262
2012-5-10,68,58,48,48,42,37,86,60,34,30.04,29.91,29.82,10,10,10,16,6,20,0.00,2,,320
2012-5-11,71,55,39,46,39,33,96,61,26,30.21,30.16,30.05,10,9,2,12,2,16,0.00,0,,81
2012-5-12,76,60,43,57,48,42,100,68,36,30.28,30.23,30.17,10,10,8,8,1,13,T,1,Rain,176
2012-5-13,64,61,58,59,58,55,100,92,84,30.18,30.13,30.06,10,6,2,12,4,14,0.45,8,Rain,39
2012-5-14,65,61,56,60,59,57,100,94,87,30.05,30.01,29.99,7,3,0,9,4,13,T,7,Fog-Rain,10
2012-5-15,77,65,53,59,57,53,100,77,53,30.05,30.01,29.96,10,4,0,6,1,9,0.00,3,Fog,260
2012-5-16,81,67,52,61,55,49,100,67,33,30.00,29.97,29.90,10,4,0,12,4,17,0.00,2,Fog,225
2012-5-17,74,64,53,56,46,36,73,56,38,30.11,30.07,30.01,10,10,10,15,7,21,T,3,Rain,37
2012-5-18,82,66,50,60,54,45,89,66,42,30.10,30.06,30.02,10,10,9,7,1,10,0.00,0,,7
2012-5-19,85,70,55,64,58,55,100,70,40,30.13,30.08,30.04,10,6,0,8,2,13,0.00,0,Fog,56
2012-5-20,82,71,59,62,58,53,93,66,39,30.17,30.10,30.01,10,7,2,9,1,13,0.00,0,,109
2012-5-21,86,72,57,63,58,54,100,69,37,30.02,29.97,29.86,10,8,1,14,3,21,0.00,0,Thunderstorm,229
2012-5-22,68,65,61,63,61,57,93,87,81,29.96,29.91,29.88,10,6,2,8,2,10,0.06,7,Rain,260
2012-5-23,80,70,60,66,62,59,100,79,58,29.93,29.89,29.86,8,4,0,9,2,15,0.01,5,Fog,66
2012-5-24,84,72,59,64,61,59,100,74,47,30.00,29.93,29.86,10,5,0,10,4,15,0.00,3,Fog,154
2012-5-25,88,74,60,68,63,59,97,72,46,30.09,30.04,29.96,10,9,6,12,3,15,0.00,1,,207
2012-5-26,91,78,65,70,67,63,100,71,41,30.16,30.11,30.06,10,7,1,7,1,12,0.00,0,,159
2012-5-27,92,79,66,73,69,66,100,72,44,30.10,30.05,29.99,9,6,1,9,1,13,0.00,0,,177
2012-5-28,91,81,71,72,67,63,93,69,44,30.02,29.95,29.88,10,9,2,12,4,16,0.00,0,,168
2012-5-29,82,75,67,70,66,64,100,81,62,29.91,29.86,29.80,10,8,1,13,5,21,0.15,4,Rain-Thunderstorm,226
2012-5-30,84,73,62,66,63,55,100,75,49,29.89,29.85,29.79,10,5,0,13,4,18,0.07,3,Fog-Rain,227
2012-5-31,82,68,53,58,54,46,100,65,30,29.91,29.85,29.72,10,8,0,18,3,25,0.06,1,Fog,121